Weather History for Calgary Springbank, AB

Change the Weather History Date:

Thursday, October 11, 2012

  Actual Average Record
Temperature  
Mean Temperature 30 °F -  
Max Temperature 35 °F 43 °F 60 °F (2004)
Min Temperature 24 °F 22 °F 14 °F (2002)
Degree Days  
Heating Degree Days 36    
Moisture  
Dew Point 28 °F    
Average Humidity 96    
Maximum Humidity 100    
Minimum Humidity 90    
Precipitation  
Precipitation 0.16 in - - ()
Sea Level Pressure  
Sea Level Pressure 30.17 in    
Wind  
Wind Speed 11 mph ()    
Max Wind Speed 18 mph    
Max Gust Speed 25 mph    
Visibility 6.5 miles    
Events Snow    
Averages and records for this station are not official NWS values.
T = Trace of Precipitation, MM = Missing Value Source: Averaged Metar Reports

Daily Weather History Graph

Daily Weather History Graph

Search for Another Location

Airport:

Trip Planner

Search our weather history database for the weather conditions in past years. The results will help you decide how hot, cold, wet, or windy it might be!

Date:

Astronomy

Oct. 11, 2012 Rise Set
Actual Time 7:55 AM MDT 6:51 PM MDT
Civil Twilight 7:22 AM MDT 7:25 PM MDT
Nautical Twilight 6:43 AM MDT 8:03 PM MDT
Astronomical Twilight 6:05 AM MDT 8:41 PM MDT
Moon 3:12 AM MDT (10/11) 4:51 PM MDT (10/11)
Length of Visible Light 12h 03m
Length of Day
10h 56m
Waning Crescent, 18% of the Moon is Illuminated
Oct 11
Waning Crescent
Oct 15
New
Oct 21
First Quarter
Oct 29
Full
Nov 6
Last Quarter

Hourly Weather History & Observations

Time (MDT) Temp. Windchill Dew Point Humidity Pressure Visibility Wind Dir Wind Speed Gust Speed Precip Events Conditions
5:00 AM 24.8 °F 14.0 °F 24.8 °F 100% 30.37 in 5.0 mi SE 11.5 mph - N/A Snow Light Snow
6:00 AM 25 °F - 24 °F 96% 30.35 in 2 mi SE 13.8 mph - - Snow Light Snow
6:00 AM 24.8 °F 13.4 °F 24.8 °F 100% 30.35 in 2.0 mi SSE 12.7 mph - N/A Snow Light Snow
7:00 AM 24.8 °F 12.9 °F 24.8 °F 100% 30.32 in 2.5 mi SSE 13.8 mph - N/A Snow Light Snow
7:25 AM 24.8 °F 11.9 °F 24.8 °F 100% 30.31 in 3.0 mi SSE 16.1 mph - N/A Snow Light Snow
7:54 AM 24.8 °F 12.9 °F 24.8 °F 100% 30.30 in 2.0 mi SE 13.8 mph 20.7 mph N/A Snow Light Snow
8:00 AM 24.8 °F 12.4 °F 24.8 °F 100% 30.30 in 2.0 mi SSE 15.0 mph - N/A Snow Light Snow
9:00 AM 26.6 °F 13.4 °F 24.8 °F 93% 30.29 in 1.5 mi SSE 18.4 mph - N/A Snow Light Snow
10:00 AM 26.6 °F 13.8 °F 24.8 °F 93% 30.27 in 2.0 mi South 17.3 mph 25.3 mph N/A Snow Light Snow
10:26 AM 26.6 °F 14.7 °F 26.6 °F 100% 30.25 in 3.0 mi SSE 15.0 mph 23.0 mph N/A Snow Light Snow
11:00 AM 26.6 °F 14.3 °F 26.6 °F 100% 30.23 in 4.0 mi SSE 16.1 mph 25.3 mph N/A   Overcast
12:00 PM 29 °F - 27 °F 91% 30.21 in 6 mi SSE 15.0 mph - -   Mist
12:00 PM 28.4 °F 16.6 °F 26.6 °F 93% 30.21 in 6.0 mi SSE 16.1 mph 23.0 mph N/A   Overcast
1:00 PM 30.2 °F 18.9 °F 28.4 °F 93% 30.17 in 7.0 mi SSE 16.1 mph 23.0 mph N/A   Overcast
2:00 PM 30.2 °F 20.2 °F 30.2 °F 100% 30.13 in 7.0 mi SSE 12.7 mph 19.6 mph N/A   Overcast
2:27 PM 30.2 °F 20.8 °F 30.2 °F 100% 30.11 in 7.0 mi SSE 11.5 mph 19.6 mph N/A   Overcast
3:00 PM 32.0 °F 21.6 °F 30.2 °F 93% 30.09 in 7.0 mi SSE 15.0 mph - N/A   Overcast
4:00 PM 33.8 °F 25.8 °F 32.0 °F 93% 30.07 in 8.0 mi SSE 10.4 mph - N/A   Overcast
6:00 PM 35 °F - 33 °F 90% 30.01 in 28 mi SSE 8.1 mph - -   Mostly Cloudy
6:00 PM 35.6 °F 29.2 °F 33.8 °F 93% 30.01 in 30.0 mi SSE 8.1 mph - N/A   Mostly Cloudy
7:00 PM 33.8 °F 27.7 °F 32.0 °F 93% 29.99 in 20.0 mi SE 6.9 mph - N/A   Overcast
8:00 PM 33.8 °F 28.6 °F 32.0 °F 93% 29.98 in 15.0 mi SE 5.8 mph - N/A   Overcast
9:00 PM 33.8 °F 30.8 °F 32.0 °F 93% 29.96 in 15.0 mi SE 3.5 mph - N/A   Overcast
10:00 PM 30.2 °F - 30.2 °F 100% 29.80 in 15.0 mi SSW 2.3 mph - N/A   Overcast